sat.trackr.live / text

‹ back to catalog

STARLINK-31104

NORAD 58672 · 2023-211F

PAYLOAD ACTIVE UNKNOWN

§ Identity

Operator
Country
US
Launch date
2023-12-29
Launch site
AFETR
Launch vehicle
Mass (kg)
RCS (m²)

Purposes: comms

External: N2YO · Heavens-Above · Gunter

§ Orbital elements

Epoch: 2026-05-25T00:09:46.230912Z

Period
93.04 min
Inclination
42.9945°
Eccentricity
0.0021514
Mean motion
15.47803176 rev/d
Perigee alt
408.5 km
Apogee alt
437.8 km
Semi-major
6,801.3 km
B*
2.2353e-3
RAAN
4.9394°
Arg perigee
259.9135°
Mean anomaly
99.9296°
Rev number
13,552

§ Raw data

STARLINK-311041 58672U 23211F   26145.00678508  .00121491  00000+0  22353-2 0  99932 58672  42.9945   4.9394 0021514 259.9135  99.9296 15.47803176135521

JSON: /api/v1/satellites/58672 · /tle

For live sub-satellite position, see the globe view (requires WebGL).

§ Visibility from observer

Set your observer location to see the next 7 days of passes ≥ 10°. The values pass through the URL so the page stays shareable.

No JS? Fill the form by hand. The geolocation button needs JavaScript.